weather.gov     
National Weather Service

Regional Weather Roundup
NWS Homepage
This page is being discontinued on March 12, 2014.
The same data is available at this site. Please update your bookmarks.
Thank you, and we apologize for the inconvenience.
Please send an email to SR-SRH.Webmaster@noaa.gov with any concerns.


Current Version
Previous Version:    01  02  03  04  05  06  07  08  09  10  11  12  13  14  15  16  17  18  19  20  21  22  23  24  25  26  27  28  29  30  
   31  32  33  34  35  36  37  38  39  40  41  42  43  44  45  46  47  48  49  50  51  52  53  54  55  56  57  58  59  60  
[Printable]
928
ASUS44 KLIX 312310
RWRLIX
NEW ORLEANS REGIONAL WEATHER ROUNDUP
NATIONAL WEATHER SERVICE NEW ORLEANS LA
600 PM CDT THU JUL 31 2014

NOTE: "FAIR" INDICATES FEW OR NO CLOUDS BELOW 12,000 FEET WITH NO
      SIGNIFICANT WEATHER AND/OR OBSTRUCTIONS TO VISIBILITY.
      SKY/WX - SKY CONDITION AND SIGNIFICANT WEATHER.
      TMP - AIR TEMPERATURE.     DP    - DEWPOINT TEMPERATURE.
      RH  - RELATIVE HUMIDITY.   PRES  - PRESSURE.
      HI  - HEAT INDEX.          WCI   - WIND CHILL INDEX.

*  THESE STATIONS ARE NOT NWS OR FAA STATIONS AND ARE NOT UNDER
   NWS QUALITY CONTROL.

LAZ038-040-048-061>063-065>067-069-010000-
SOUTHEAST LOUISIANA

CITY           SKY/WX    TMP DP  RH WIND       PRES   REMARKS
N.O. AUDUBON     N/A     90  67  45 MISG        N/A
N.O. INTL ARPT PTSUNNY   88  62  41 N8        29.99S
N.O. LAKEFRONT MOSUNNY   87  57  35 NE3       29.99F
N.O. DOWNTOWN*   N/A     88  63  42 NW3       29.99S
SLIDELL        PTSUNNY   85  66  53 NE5       29.98F
BATON ROUGE    PTSUNNY   85  68  56 NE8       29.98S
BOOTHVILLE     MOSUNNY   84  65  52 NE5       30.00F
BELLE CHASSE   PTSUNNY   85  65  51 E5        29.99R
BOGALUSA*        N/A     85  64  50 CALM      30.01F
GALLIANO*      NOT AVBL
NEW ROADS*       N/A     82  68  61 NE6       29.99S
GONZALES*        N/A     88  72  58 E3        29.97F
HAMMOND*       PTSUNNY   88  61  40 E5        30.01S
HOUMA*         NOT AVBL
PORT FOURCHON* CLEAR     84  66  54 E8        30.00F

$$

MSZ070-080>082-010000-
SOUTHERN MISSISSIPPI

CITY           SKY/WX    TMP DP  RH WIND       PRES   REMARKS
MCCOMB         CLOUDY    80  69  69 NE7       30.02S
GULFPORT       MOSUNNY   86  63  45 SW6       29.98S
BILOXI         MOSUNNY   83  63  51 SW8       29.99S
PASCAGOULA     MOSUNNY   83  65  54 S6        29.98S
STENNIS ARPT*  SUNNY    N/A N/A N/A CALM      29.99R

$$

COASTAL OBSERVATIONS
LAKE AND NEARSHORE STATIONS

STATION/POSITION TIME  TEMP    WIND        PRES    WAVE
                       AIR SEA DIR/SP/G            HT/PER
                 (UTC) (F)     (DEG/KT/KT) (MB)    (FT/S)
PASCAGOULA       2300   84     230/  7/ 10 1015.0
WAVELAND YACHT   2300   83     230/  4/  6 1015.0
GRAND ISLE       2300   84 88  130/  2/  6 1016.2
SOUTHWEST PASS   2300   88 86  100/  5/  8 1015.8
NEW CANAL        2300   85 84   30/  5/  6 1015.9
SHELL BEACH      2300   83 82  170/  6/  8 1015.6

OFFSHORE STATIONS

STATION/POSITION TIME  TEMP    WIND        PRES    WAVE
                       AIR SEA DIR/SP/G            HT/PER
                 (UTC) (F)     (DEG/KT/KT) (MB)    (FT/S)
64 S DAUPHIN ISL 2236   82 87   20/  4/  6 1015.6

$$





U.S. Dept. of Commerce
NOAA National Weather Service
1325 East West Highway
Silver Spring, MD 20910
E-mail: w-nws.webmaster@noaa.gov
Page last modified: May 16, 2007
NATIONAL WEATHER SERVICE: for Safety, for Work, for Fun - FOR LIFE